Weather History for New Castle, PA

Change the Weather History Date:

Tuesday, February 12, 2013

  Actual Average Record
Temperature  
Mean Temperature 30 °F -  
Max Temperature 35 °F 37 °F 62 °F (1932)
Min Temperature 23 °F 17 °F -6 °F (1981)
Degree Days  
Heating Degree Days 36    
Moisture  
Dew Point 21 °F    
Average Humidity 70    
Maximum Humidity 92    
Minimum Humidity 60    
Precipitation  
Precipitation 0.00 in - - ()
Sea Level Pressure  
Sea Level Pressure 30.05 in    
Wind  
Wind Speed 11 mph (WSW)    
Max Wind Speed 18 mph    
Max Gust Speed 29 mph    
Visibility 10 miles    
Events      
Averages and records for this station are not official NWS values.
T = Trace of Precipitation, MM = Missing Value Source: NWS Daily Summary

Daily Weather History Graph

Daily Weather History Graph

Search for Another Location

Airport:

Trip Planner

Search our weather history database for the weather conditions in past years. The results will help you decide how hot, cold, wet, or windy it might be!

Date:

Astronomy

Feb. 12, 2013 Rise Set
Actual Time 7:19 AM EST 5:52 PM EST
Civil Twilight 6:51 AM EST 6:21 PM EST
Nautical Twilight 6:18 AM EST 6:53 PM EST
Astronomical Twilight 5:47 AM EST 7:25 PM EST
Moon 8:14 AM EST (2/12) 8:53 PM EST (2/12)
Length of Visible Light 11h 29m
Length of Day
10h 33m
Waxing Crescent, 7% of the Moon is Illuminated
Feb 12
Waxing Crescent
Feb 17
First Quarter
Feb 25
Full
Mar 4
Last Quarter
Mar 11
New

Hourly Weather History & Observations

Time (EST) Temp. Windchill Dew Point Humidity Pressure Visibility Wind Dir Wind Speed Gust Speed Precip Events Conditions
12:56 AM 32.9 °F 22.8 °F 21.0 °F 62% 29.99 in 10.0 mi WSW 15.0 mph - 0.00 in   Mostly Cloudy
1:56 AM 32.0 °F 20.5 °F 20.1 °F 62% 30.01 in 10.0 mi WSW 18.4 mph 28.8 mph 0.00 in   Mostly Cloudy
2:56 AM 31.1 °F 20.9 °F 21.0 °F 66% 30.02 in 10.0 mi SW 13.8 mph - N/A   Overcast
3:56 AM 31.1 °F 22.4 °F 21.0 °F 66% 30.03 in 10.0 mi WSW 10.4 mph - N/A   Overcast
4:56 AM 31.1 °F 21.4 °F 20.1 °F 64% 30.05 in 10.0 mi WSW 12.7 mph - N/A   Overcast
5:14 AM 30.2 °F 19.8 °F 21.2 °F 69% 29.98 in 10.0 mi WSW 13.8 mph - N/A   Overcast
5:56 AM 31.1 °F 21.4 °F 21.0 °F 66% 30.07 in 10.0 mi West 12.7 mph - N/A   Overcast
6:40 AM 30.2 °F 22.6 °F 21.2 °F 69% 30.01 in 10.0 mi West 8.1 mph - N/A   Overcast
6:56 AM 30.0 °F 20.5 °F 21.0 °F 69% 30.09 in 10.0 mi WSW 11.5 mph - N/A   Overcast
7:56 AM 30.0 °F 20.5 °F 20.1 °F 67% 30.12 in 10.0 mi WSW 11.5 mph - N/A   Overcast
8:56 AM 30.0 °F 20.5 °F 22.1 °F 72% 30.13 in 10.0 mi WSW 11.5 mph - 0.00 in   Overcast
9:56 AM 30.0 °F 21.7 °F 21.0 °F 69% 30.14 in 10.0 mi West 9.2 mph - 0.00 in   Overcast
10:56 AM 31.1 °F 22.4 °F 21.0 °F 66% 30.14 in 10.0 mi West 10.4 mph - N/A   Overcast
11:56 AM 31.1 °F 23.1 °F 22.1 °F 69% 30.13 in 10.0 mi SW 9.2 mph - N/A   Overcast
12:56 PM 32.0 °F 24.8 °F 22.1 °F 67% 30.09 in 10.0 mi West 8.1 mph - N/A   Overcast
1:56 PM 32.0 °F 23.6 °F 23.0 °F 69% 30.07 in 10.0 mi West 10.4 mph - N/A   Overcast
2:56 PM 32.9 °F 25.3 °F 22.1 °F 65% 30.02 in 10.0 mi WSW 9.2 mph - N/A   Overcast
3:56 PM 34.0 °F 26.6 °F 23.0 °F 64% 30.07 in 10.0 mi WSW 9.2 mph - N/A   Overcast
4:28 PM 35.6 °F 30.7 °F 23.0 °F 60% 29.99 in 10.0 mi West 5.8 mph - N/A   Scattered Clouds
4:56 PM 34.0 °F 28.0 °F 23.0 °F 64% 30.06 in 10.0 mi Variable 6.9 mph - N/A   Partly Cloudy
5:56 PM 32.0 °F - 22.1 °F 67% 30.07 in 10.0 mi Calm Calm - N/A   Clear
6:56 PM 30.0 °F 25.2 °F 22.1 °F 72% 30.05 in 10.0 mi NE 4.6 mph - N/A   Clear
7:56 PM 28.0 °F 24.2 °F 21.0 °F 75% 30.04 in 10.0 mi NE 3.5 mph - N/A   Clear
8:56 PM 26.1 °F - 21.0 °F 81% 30.02 in 10.0 mi Calm Calm - N/A   Clear
9:56 PM 24.1 °F - 21.0 °F 88% 30.02 in 10.0 mi Calm Calm - N/A   Clear
10:56 PM 25.2 °F - 21.0 °F 84% 30.01 in 10.0 mi Calm Calm - N/A   Clear
11:56 PM 23.0 °F - 21.0 °F 92% 30.00 in 8.0 mi Calm Calm - N/A   Clear